Home   Weather   Governador Valadares   Past weeks
Flag for Brazil

Past Weather in Governador Valadares, Minas Gerais, Brazil — Yesterday and Last 2 Weeks

Now
59 °F

Light fog.


Feels Like: 59 °F
Forecast: 88 / 66 °F
Wind: No wind

Location: Belo Horizonte Airport

Current Time: May 20, 2019 at 7:45:43 am

Latest Report: May 20, 2019 at 7:00 am


Visibility: 5 mi

Pressure: 30.09 "Hg

Humidity: 100%

Dew Point: 59 °F

Location of Governador ValadaresLocation

Past Weather in Governador Valadares — Graph

°F

Governador Valadares Temperature Yesterday

Maximum temperature yesterday: 75 °F (at 2:00 pm)
Minimum temperature yesterday: 61 °F (at 3:00 am)
Average temperature yesterday: 67 °F

High & Low Weather Summary for the Past Weeks

 TemperatureHumidityPressure
High84 °F (May 7, 4:00 pm)100% (May 7, 7:00 am)30.21 "Hg (May 7, 7:00 am)
Low57 °F (May 20, 6:00 am)43% (May 7, 4:00 pm)29.80 "Hg (May 14, 11:00 am)
Average69 °F77%30.10 "Hg
* Reported May 5 6:00 am — May 20 6:00 am, Governador Valadares. Weather by CustomWeather, © 2019

Note: Actual official high and low records may vary slightly from our data, if they occured in-between our weather recording intervals... More about our weather records

Advertising

Governador Valadares Weather History for the Previous 24 Hours

Scroll right to see more
 ConditionsComfort  
Time TempWeatherWind HumidityBarometerVisibility
6:00 am
Mon, May 20
57 °FLight fog.3 mph100%30.09 "HgN/A
5:00 am59 °FClear.3 mph100%30.07 "Hg10 mi
4:00 am59 °FClear.5 mph100%30.09 "Hg10 mi
3:00 am61 °FClear.3 mph94%30.09 "Hg10 mi
2:00 am61 °FClear.5 mph94%30.12 "Hg10 mi
1:00 am63 °FClear.5 mph88%30.12 "Hg10 mi
12:00 am63 °FClear.3 mph88%30.12 "Hg10 mi
11:00 pm
Sun, May 19
64 °FClear.3 mph83%30.12 "Hg10 mi
10:00 pm64 °FClear.3 mph83%30.12 "Hg10 mi
9:00 pm64 °FClear.3 mph88%30.09 "Hg10 mi
8:00 pm66 °FClear.2 mph78%30.09 "Hg10 mi
7:00 pm68 °FClear.10 mph73%30.07 "Hg10 mi
6:00 pm72 °FPassing clouds.8 mph69%30.07 "HgN/A
5:00 pm75 °FPassing clouds.7 mph61%30.04 "HgN/A
4:00 pm75 °FScattered clouds.6 mph61%30.07 "HgN/A
3:00 pm75 °FScattered clouds.6 mph57%30.07 "HgN/A
2:00 pm75 °FPartly sunny.7 mph65%30.09 "HgN/A
1:00 pm73 °FPartly sunny.7 mph65%30.09 "HgN/A
12:00 pm73 °FPartly sunny.6 mph69%30.12 "HgN/A
11:00 am72 °FPartly sunny.7 mph73%30.15 "HgN/A
10:00 am70 °FScattered clouds.3 mph73%30.15 "HgN/A
9:00 am66 °FPassing clouds.5 mph83%30.15 "HgN/A
8:00 am63 °FSunny.3 mph94%30.15 "Hg10 mi
7:00 am61 °FSunny.3 mph94%30.12 "Hg10 mi
Weather by CustomWeather, © 2019

See weather overview